Weather History for 71892 - July, 2013

Change the Weather History Date:

Thursday, July 18, 2013

  Actual Average Record
Temperature  
Mean Temperature 66 °F -  
Max Temperature 72 °F 71 °F - ()
Min Temperature 59 °F 55 °F - ()
Growing Degree Days 16 (Base 50)    
Moisture  
Dew Point 57 °F    
Average Humidity 73    
Maximum Humidity 82    
Minimum Humidity 64    
Precipitation  
Precipitation 0.00 in 0.05 in - ()
Sea Level Pressure  
Sea Level Pressure 30.18 in    
Wind  
Wind Speed 7 mph ()    
Max Wind Speed 10 mph    
Max Gust Speed -    
Visibility 18.7 miles    
Events      
T = Trace of Precipitation, MM = Missing Value Source: Averaged Metar Reports

Daily Weather History Graph

Daily Weather History Graph

Search for Another Location

Airport or City:

Trip Planner

Search our weather history database for the weather conditions in past years. The results will help you decide how hot, cold, wet, or windy it might be!

Date:

Astronomy

Jul. 18, 2013 Rise Set
Actual Time 5:27 AM PDT 9:09 PM PDT
Civil Twilight 4:47 AM PDT 9:49 PM PDT
Nautical Twilight 3:52 AM PDT 10:44 PM PDT
Astronomical Twilight 2:31 AM PDT 12:02 AM PDT
Moon 5:10 PM PDT (7/18) 1:27 AM PDT (7/18)
Length of Visible Light 17h 02m
Length of Day
15h 41m
Waxing Gibbous, 78% of the Moon is Illuminated
Jul 18
Waxing Gibbous
Jul 22
Full
Jul 29
Last Quarter
Aug 6
New
Aug 14
First Quarter

Hourly Weather History & Observations

Time (PDT) Temp. Dew Point Humidity Pressure Visibility Wind Dir Wind Speed Gust Speed Precip Events Conditions
12:00 AM 62.6 °F 55.4 °F 77% 30.18 in 30.0 mi ESE 8.1 mph - N/A   Clear
1:00 AM 62.6 °F 55.4 °F 77% 30.19 in 30.0 mi ESE 9.2 mph - N/A   Clear
2:00 AM 60.8 °F 55.4 °F 82% 30.19 in 30.0 mi ESE 10.4 mph - N/A   Clear
3:00 AM 60.8 °F 53.6 °F 77% 30.20 in 30.0 mi East 10.4 mph - N/A   Clear
4:00 AM 59.0 °F 53.6 °F 82% 30.20 in 30.0 mi ESE 9.2 mph - N/A   Partly Cloudy
5:00 AM 59 °F 54 °F 77% 30.20 in 19 mi ESE 6.9 mph - -   Scattered Clouds
5:00 AM 59.0 °F 53.6 °F 82% 30.20 in 20.0 mi ESE 6.9 mph - N/A   Mostly Cloudy
6:00 AM 59.0 °F 53.6 °F 82% 30.21 in 30.0 mi SSE 2.3 mph - N/A   Scattered Clouds
7:00 AM 62.6 °F 55.4 °F 77% 30.22 in 20.0 mi SSE 4.6 mph - N/A   Overcast
8:00 AM 62.6 °F 55.4 °F 77% 30.23 in 15.0 mi SSE 4.6 mph - N/A   Overcast
9:00 AM 66.2 °F 57.2 °F 73% 30.23 in 15.0 mi South 4.6 mph - N/A   Mostly Cloudy
10:00 AM 68.0 °F 57.2 °F 68% 30.23 in 20.0 mi WSW 5.8 mph - N/A   Partly Cloudy
11:00 AM 68.0 °F 59.0 °F 73% 30.22 in 20.0 mi WSW 9.2 mph - N/A   Partly Cloudy
12:00 PM 69.8 °F 59.0 °F 68% 30.21 in 20.0 mi WSW 8.1 mph - N/A   Partly Cloudy
1:00 PM 68.0 °F 59.0 °F 73% 30.21 in 20.0 mi West 10.4 mph - N/A   Partly Cloudy
2:00 PM 68.0 °F 59.0 °F 73% 30.20 in 20.0 mi WSW 9.2 mph - N/A   Partly Cloudy
3:00 PM 71.6 °F 59.0 °F 64% 30.18 in 20.0 mi West 5.8 mph - N/A   Partly Cloudy
4:00 PM 71.6 °F 59.0 °F 64% 30.16 in 20.0 mi WSW 6.9 mph - N/A   Partly Cloudy
5:00 PM 70 °F 61 °F 66% 30.15 in 28 mi SW 8.1 mph - -   Scattered Clouds
5:00 PM 69.8 °F 60.8 °F 73% 30.14 in 30.0 mi SW 8.1 mph - N/A   Partly Cloudy
6:00 PM 69.8 °F 60.8 °F 73% 30.13 in 20.0 mi SW 8.1 mph - N/A   Clear
7:00 PM 71.6 °F 59.0 °F 64% 30.12 in 30.0 mi SSW 8.1 mph - N/A   Clear
8:00 PM 71.6 °F 59.0 °F 64% 30.12 in 30.0 mi SSW 4.6 mph - N/A   Clear
9:00 PM 68.0 °F 57.2 °F 68% 30.12 in 30.0 mi SSE 5.8 mph - N/A   Clear
10:00 PM 66.2 °F 57.2 °F 73% 30.13 in 20.0 mi East 8.1 mph - N/A   Clear
11:00 PM 65 °F 57 °F 69% 30.13 in 15 mi East 6.9 mph - -  
11:00 PM 64.4 °F 57.2 °F 77% 30.13 in 15.0 mi East 5.8 mph - N/A   Clear